Terminal Aerodrome Forecast
Issued by NWS Detroit/Pontiac, MI

Home | Current Version | Previous Version | Text Only | Print | Product List | Glossary On
Versions: 1 2 3 4 5 6 7 8 9 10 11 12 13 14 15 16 17 18 19 20 21 22 23 24 25 26 27 28 29 30 31 32 33
000
FTUS43 KDTX 021101 AAB
TAFDTW
TAF AMD
KDTW 021101Z 0211/0312 35005KT 2SM -SHRA OVC004
     FM021300 03009KT P6SM OVC007
     FM021500 03009KT P6SM BKN015
     FM021800 02009KT P6SM BKN025
     FM022000 03010KT P6SM BKN040=

USA.gov is the U.S. government's official web portal to all federal, state and local government web resources and services.